QPF
0.00 0.00 0.00 0.00 0.00 0.00 0.00 0.00 0.00 0.00 0.00 0.00 0.00 0.00 0.00 0.00 0.00 0.00 0.00 0.00 0.00 0.00 0.00 0.00 0.00 0.00 0.00 0.00 0.00 0.00 0.01 0.01 0.01 0.01 0.00 0.00 0.00 0.01 0.01 0.01 0.01 0.00 0.01 0.01 0.01 0.01 0.00 0.00 0.00
0.00 0.00 0.00 0.00 0.00 0.00 0.00 0.00 0.00 0.00 0.00 0.00 0.00 0.00 0.00 0.00 0.00 0.00 0.00 0.00 0.00 0.00 0.00 0.00 0.00 0.00 0.00 0.00 0.00 0.00 0.00 0.01 0.01 0.01 0.00 0.00 0.00 0.01 0.01 0.01 0.00 0.00 0.00 0.00 0.00 0.00 0.00 0.00 0.00
0.00 0.00 0.00 0.00 0.00 0.00 0.00 0.00 0.00 0.00 0.00 0.00 0.00 0.00 0.00 0.00 0.00 0.00 0.00 0.00 0.00 0.00 0.00 0.00 0.00 0.00 0.00 0.00 0.00 0.00 0.00 0.01 0.01 0.00 0.00 0.00 0.00 0.00 0.00 0.00 0.00 0.00 0.00 0.00 0.00 0.00 0.00 0.00 0.00
0.00 0.00 0.00 0.00 0.00 0.00 0.00 0.00 0.00 0.00 0.00 0.00 0.00 0.00 0.00 0.00 0.00 0.00 0.00 0.00 0.00 0.00 0.00 0.00 0.00 0.00 0.00 0.00 0.00 0.00 0.00 0.00 0.00 0.00 0.00 0.00 0.00 0.00 0.00 0.00 0.00 0.00 0.00 0.00 0.00 0.00 0.00 0.00 0.00
0.00 0.00 0.00 0.00 0.00 0.00 0.00 0.00 0.00 0.00 0.00 0.00 0.00 0.00 0.00 0.00 0.00 0.00 0.00 0.00 0.00 0.00 0.00 0.00 0.00 0.00 0.00 0.00 0.00 0.00 0.00 0.00 0.00 0.00 0.00 0.00 0.00 0.00 0.00 0.00 0.00 0.00 0.00 0.00 0.00 0.00 0.00 0.00 0.00
0.00 0.00 0.00 0.00 0.00 0.00 0.00 0.00 0.00 0.00 0.00 0.00 0.00 0.00 0.00 0.00 0.00 0.00 0.00 0.00 0.00 0.00 0.00 0.00 0.00 0.00 0.00 0.00 0.00 0.00 0.00 0.00 0.00 0.00 0.00 0.00 0.00 0.00 0.00 0.00 0.00 0.00 0.00 0.00 0.00 0.00 0.00 0.00 0.00
0.00 0.00 0.00 0.00 0.00 0.00 0.00 0.00 0.00 0.00 0.00 0.00 0.00 0.00 0.00 0.00 0.00 0.00 0.00 0.00 0.00 0.00 0.00 0.00 0.00 0.00 0.00 0.00 0.00 0.00 0.00 0.00 0.00 0.00 0.00 0.00 0.00 0.00 0.00 0.00 0.00 0.00 0.00 0.00 0.00 0.00 0.00 0.00 0.00
0.00 0.00 0.00 0.00 0.00 0.00 0.00 0.00 0.00 0.00 0.00 0.00 0.00 0.00 0.00 0.00 0.00 0.00 0.00 0.00 0.00 0.00 0.00 0.00 0.00 0.00 0.00 0.00 0.00 0.00 0.00 0.00 0.00 0.00 0.00 0.00 0.00 0.00 0.00 0.00 0.00 0.00 0.00 0.00 0.00 0.00 0.00 0.00 0.00
0.00 0.00 0.00 0.00 0.00 0.00 0.00 0.00 0.00 0.00 0.00 0.00 0.00 0.00 0.00 0.00 0.00 0.00 0.00 0.00 0.00 0.00 0.00 0.00 0.00 0.00 0.00 0.00 0.00 0.00 0.00 0.00 0.00 0.00 0.00 0.00 0.00 0.00 0.00 0.00 0.00 0.00 0.00 0.00 0.00 0.00 0.00 0.00 0.00
0.00 0.00 0.00 0.00 0.00 0.00 0.00 0.00 0.00 0.00 0.00 0.00 0.00 0.00 0.00 0.00 0.00 0.00 0.00 0.00 0.00 0.00 0.00 0.00 0.00 0.00 0.00 0.00 0.00 0.00 0.00 0.00 0.00 0.00 0.00 0.00 0.00 0.00 0.00 0.00 0.00 0.00 0.00 0.00 0.00 0.00 0.00 0.00 0.00
0.00 0.00 0.00 0.00 0.00 0.00 0.00 0.00 0.00 0.00 0.00 0.00 0.00 0.00 0.00 0.00 0.00 0.00 0.00 0.00 0.00 0.00 0.00 0.00 0.00 0.00 0.00 0.00 0.00 0.00 0.00 0.00 0.00 0.00 0.00 0.00 0.00 0.00 0.00 0.00 0.00 0.00 0.00 0.00 0.00 0.00 0.00 0.00 0.00
0.00 0.00 0.00 0.00 0.00 0.00 0.00 0.00 0.00 0.00 0.00 0.00 0.00 0.00 0.00 0.00 0.00 0.00 0.00 0.00 0.00 0.00 0.00 0.00 0.00 0.00 0.00 0.00 0.00 0.00 0.00 0.00 0.00 0.00 0.00 0.00 0.00 0.00 0.00 0.00 0.00 0.00 0.00 0.00 0.00 0.00 0.00 0.00 0.00
0.00 0.00 0.00 0.00 0.00 0.00 0.00 0.00 0.00 0.00 0.00 0.00 0.00 0.00 0.00 0.00 0.00 0.00 0.00 0.00 0.00 0.00 0.00 0.00 0.00 0.00 0.00 0.00 0.00 0.00 0.00 0.00 0.00 0.00 0.00 0.00 0.00 0.00 0.00 0.00 0.00 0.00 0.00 0.00 0.00 0.00 0.00 0.00 0.00
0.00 0.00 0.00 0.00 0.00 0.00 0.00 0.00 0.00 0.00 0.00 0.00 0.00 0.00 0.00 0.00 0.00 0.00 0.00 0.00 0.00 0.00 0.00 0.00 0.00 0.00 0.00 0.00 0.00 0.00 0.00 0.00 0.00 0.00 0.00 0.00 0.00 0.00 0.00 0.00 0.00 0.00 0.00 0.00 0.00 0.00 0.00 0.00 0.00
0.00 0.00 0.00 0.00 0.00 0.00 0.00 0.00 0.00 0.00 0.00 0.00 0.00 0.00 0.00 0.00 0.00 0.00 0.00 0.00 0.00 0.00 0.00 0.00 0.00 0.00 0.00 0.00 0.00 0.00 0.00 0.00 0.00 0.00 0.00 0.00 0.00 0.00 0.00 0.00 0.00 0.00 0.00 0.00 0.00 0.00 0.00 0.00 0.00
0.00 0.00 0.00 0.00 0.00 0.00 0.00 0.00 0.00 0.00 0.00 0.00 0.00 0.00 0.00 0.00 0.00 0.00 0.00 0.00 0.00 0.00 0.00 0.00 0.00 0.00 0.00 0.00 0.00 0.00 0.00 0.00 0.00 0.00 0.00 0.00 0.00 0.00 0.00 0.00 0.00 0.00 0.00 0.00 0.00 0.00 0.00 0.00 0.00
0.00 0.00 0.00 0.00 0.00 0.00 0.00 0.00 0.00 0.00 0.00 0.00 0.00 0.00 0.00 0.00 0.00 0.00 0.00 0.00 0.00 0.00 0.00 0.00 0.00 0.00 0.00 0.00 0.00 0.00 0.00 0.00 0.00 0.00 0.00 0.00 0.00 0.00 0.00 0.00 0.00 0.00 0.00 0.00 0.00 0.00 0.00 0.00 0.00
0.00 0.00 0.00 0.00 0.00 0.00 0.00 0.00 0.00 0.00 0.00 0.00 0.00 0.00 0.00 0.00 0.00 0.00 0.00 0.00 0.00 0.00 0.00 0.00 0.00 0.00 0.00 0.00 0.00 0.00 0.00 0.00 0.00 0.00 0.00 0.00 0.00 0.00 0.00 0.00 0.00 0.00 0.00 0.00 0.00 0.00 0.00 0.00 0.00
0.00 0.00 0.00 0.00 0.00 0.00 0.00 0.00 0.00 0.00 0.00 0.00 0.00 0.00 0.00 0.00 0.00 0.00 0.00 0.00 0.00 0.00 0.00 0.00 0.00 0.00 0.00 0.00 0.00 0.00 0.00 0.00 0.00 0.00 0.00 0.00 0.00 0.00 0.00 0.00 0.00 0.00 0.00 0.00 0.00 0.00 0.00 0.00 0.00
0.00 0.00 0.00 0.00 0.00 0.00 0.00 0.00 0.00 0.00 0.00 0.00 0.00 0.00 0.00 0.00 0.00 0.00 0.00 0.00 0.00 0.00 0.00 0.00 0.00 0.00 0.00 0.00 0.00 0.00 0.00 0.00 0.00 0.00 0.00 0.00 0.00 0.00 0.00 0.00 0.00 0.00 0.00 0.00 0.00 0.00 0.00 0.00 0.00
0.00 0.00 0.00 0.00 0.00 0.00 0.00 0.00 0.00 0.00 0.00 0.00 0.00 0.00 0.00 0.00 0.00 0.00 0.00 0.00 0.00 0.00 0.00 0.00 0.00 0.00 0.00 0.00 0.00 0.00 0.00 0.00 0.00 0.00 0.00 0.00 0.00 0.00 0.00 0.00 0.00 0.00 0.00 0.00 0.00 0.00 0.00 0.00 0.00
0.00 0.00 0.00 0.00 0.00 0.00 0.00 0.00 0.00 0.00 0.00 0.00 0.00 0.00 0.00 0.00 0.00 0.00 0.00 0.00 0.00 0.00 0.00 0.00 0.00 0.00 0.00 0.00 0.00 0.00 0.00 0.00 0.00 0.00 0.00 0.00 0.00 0.00 0.00 0.00 0.00 0.00 0.00 0.00 0.00 0.00 0.00 0.00 0.00
0.00 0.00 0.00 0.00 0.00 0.00 0.00 0.00 0.00 0.00 0.00 0.00 0.00 0.00 0.00 0.00 0.00 0.00 0.00 0.00 0.00 0.00 0.00 0.00 0.00 0.00 0.00 0.00 0.00 0.00 0.00 0.00 0.00 0.00 0.00 0.00 0.00 0.00 0.00 0.00 0.00 0.00 0.00 0.00 0.00 0.00 0.00 0.00 0.00
0.00 0.00 0.00 0.00 0.00 0.00 0.00 0.00 0.00 0.00 0.00 0.00 0.00 0.00 0.00 0.00 0.00 0.00 0.00 0.00 0.00 0.00 0.00 0.00 0.00 0.00 0.00 0.00 0.00 0.00 0.00 0.00 0.00 0.00 0.00 0.00 0.00 0.00 0.00 0.00 0.00 0.00 0.00 0.00 0.00 0.00 0.00 0.00 0.00
0.00 0.00 0.00 0.00 0.00 0.00 0.00 0.00 0.00 0.00 0.00 0.00 0.00 0.00 0.00 0.00 0.00 0.00 0.00 0.00 0.00 0.00 0.00 0.00 0.00 0.00 0.00 0.00 0.00 0.00 0.00 0.00 0.00 0.00 0.00 0.00 0.00 0.00 0.00 0.00 0.00 0.00 0.00 0.00 0.00 0.00 0.00 0.00 0.00
0.00 0.00 0.00 0.00 0.00 0.00 0.00 0.00 0.00 0.00 0.00 0.00 0.00 0.00 0.00 0.00 0.00 0.00 0.00 0.00 0.00 0.00 0.00 0.00 0.00 0.00 0.00 0.00 0.00 0.00 0.00 0.00 0.00 0.00 0.00 0.00 0.00 0.00 0.00 0.00 0.00 0.00 0.00 0.00 0.00 0.00 0.00 0.00 0.00
0.00 0.00 0.00 0.00 0.00 0.00 0.00 0.00 0.00 0.00 0.00 0.00 0.00 0.00 0.00 0.00 0.00 0.00 0.00 0.00 0.00 0.00 0.00 0.00 0.00 0.00 0.00 0.00 0.00 0.00 0.00 0.00 0.00 0.00 0.00 0.00 0.00 0.00 0.00 0.00 0.00 0.00 0.00 0.00 0.00 0.00 0.00 0.00 0.00
0.00 0.00 0.00 0.00 0.00 0.00 0.00 0.00 0.00 0.00 0.00 0.00 0.00 0.00 0.00 0.00 0.00 0.00 0.00 0.00 0.00 0.00 0.00 0.00 0.00 0.00 0.00 0.00 0.00 0.00 0.00 0.00 0.00 0.00 0.00 0.00 0.00 0.00 0.00 0.00 0.00 0.00 0.00 0.00 0.00 0.00 0.00 0.00 0.00
0.00 0.00 0.00 0.00 0.00 0.00 0.00 0.00 0.00 0.00 0.00 0.00 0.00 0.00 0.00 0.00 0.00 0.00 0.00 0.00 0.00 0.00 0.00 0.00 0.00 0.00 0.00 0.00 0.00 0.00 0.00 0.00 0.00 0.00 0.00 0.00 0.00 0.00 0.00 0.00 0.00 0.00 0.00 0.00 0.00 0.00 0.00 0.00 0.00
0.00 0.00 0.00 0.01 0.01 0.01 0.02 0.01 0.00 0.00 0.00 0.00 0.00 0.00 0.00 0.00 0.00 0.00 0.00 0.00 0.00 0.00 0.00 0.00 0.00 0.00 0.00 0.00 0.00 0.00 0.00 0.00 0.00 0.00 0.00 0.00 0.00 0.00 0.00 0.00 0.00 0.00 0.00 0.00 0.00 0.00 0.00 0.00 0.00
MSLP
1016.39 1017.14 1018.02 1018.89 1019.62 1020.07 1020.20 1020.01 1019.56 1018.97 1018.38 1017.92 1017.64 1017.58 1017.71 1017.94 1018.18 1018.36 1018.41 1018.35 1018.19 1018.01 1017.85 1017.78 1017.81 1017.94 1018.13 1018.32 1018.48 1018.58 1018.63 1018.65 1018.68 1018.75 1018.87 1019.07 1019.29 1019.53 1019.72 1019.84 1019.87 1019.83 1019.74 1019.64 1019.55 1019.50 1019.50 1019.52 1019.55
1016.85 1017.72 1018.67 1019.52 1020.15 1020.44 1020.35 1019.92 1019.24 1018.45 1017.69 1017.11 1016.77 1016.68 1016.81 1017.08 1017.38 1017.63 1017.77 1017.80 1017.73 1017.64 1017.57 1017.57 1017.65 1017.81 1018.02 1018.23 1018.41 1018.55 1018.65 1018.72 1018.82 1018.95 1019.15 1019.38 1019.64 1019.88 1020.07 1020.17 1020.18 1020.11 1020.00 1019.88 1019.79 1019.73 1019.71 1019.72 1019.73
1017.32 1018.27 1019.22 1020.00 1020.49 1020.60 1020.30 1019.67 1018.81 1017.87 1017.03 1016.40 1016.04 1015.97 1016.13 1016.44 1016.80 1017.10 1017.31 1017.41 1017.42 1017.40 1017.40 1017.45 1017.58 1017.77 1018.00 1018.23 1018.43 1018.59 1018.73 1018.86 1019.01 1019.19 1019.42 1019.69 1019.95 1020.18 1020.34 1020.41 1020.41 1020.33 1020.22 1020.10 1020.02 1019.97 1019.95 1019.96 1019.96
1017.80 1018.77 1019.66 1020.32 1020.64 1020.56 1020.09 1019.30 1018.33 1017.33 1016.48 1015.86 1015.55 1015.53 1015.74 1016.09 1016.48 1016.82 1017.07 1017.21 1017.28 1017.31 1017.36 1017.46 1017.63 1017.84 1018.08 1018.31 1018.52 1018.70 1018.86 1019.02 1019.20 1019.42 1019.66 1019.93 1020.18 1020.38 1020.52 1020.57 1020.55 1020.48 1020.39 1020.30 1020.25 1020.23 1020.23 1020.24 1020.24
1018.28 1019.20 1019.98 1020.48 1020.62 1020.36 1019.74 1018.86 1017.85 1016.88 1016.08 1015.55 1015.32 1015.37 1015.64 1016.01 1016.42 1016.76 1017.02 1017.18 1017.28 1017.36 1017.45 1017.58 1017.77 1018.00 1018.24 1018.47 1018.67 1018.85 1019.01 1019.19 1019.38 1019.60 1019.85 1020.10 1020.33 1020.51 1020.62 1020.66 1020.65 1020.60 1020.54 1020.49 1020.48 1020.50 1020.53 1020.56 1020.56
1018.73 1019.55 1020.16 1020.47 1020.42 1020.00 1019.28 1018.36 1017.39 1016.50 1015.82 1015.42 1015.30 1015.44 1015.74 1016.13 1016.52 1016.84 1017.08 1017.25 1017.36 1017.47 1017.60 1017.77 1017.97 1018.21 1018.44 1018.66 1018.84 1019.01 1019.17 1019.33 1019.52 1019.74 1019.98 1020.22 1020.43 1020.59 1020.69 1020.73 1020.73 1020.71 1020.69 1020.69 1020.73 1020.79 1020.85 1020.90 1020.91
1019.10 1019.77 1020.18 1020.29 1020.05 1019.50 1018.71 1017.81 1016.92 1016.17 1015.65 1015.39 1015.39 1015.59 1015.92 1016.29 1016.64 1016.92 1017.13 1017.28 1017.41 1017.55 1017.71 1017.92 1018.16 1018.41 1018.63 1018.84 1019.00 1019.15 1019.29 1019.45 1019.64 1019.86 1020.10 1020.33 1020.53 1020.69 1020.79 1020.84 1020.85 1020.85 1020.87 1020.91 1020.98 1021.07 1021.15 1021.22 1021.24
1019.33 1019.81 1020.02 1019.91 1019.50 1018.84 1018.03 1017.18 1016.41 1015.82 1015.47 1015.35 1015.45 1015.70 1016.02 1016.35 1016.64 1016.86 1017.03 1017.17 1017.32 1017.50 1017.72 1017.98 1018.26 1018.53 1018.76 1018.96 1019.11 1019.24 1019.38 1019.54 1019.73 1019.96 1020.21 1020.46 1020.67 1020.84 1020.95 1021.01 1021.04 1021.06 1021.09 1021.15 1021.24 1021.33 1021.42 1021.48 1021.50
1019.38 1019.66 1019.65 1019.35 1018.80 1018.06 1017.25 1016.48 1015.84 1015.41 1015.20 1015.21 1015.38 1015.64 1015.93 1016.19 1016.40 1016.56 1016.70 1016.84 1017.02 1017.25 1017.55 1017.88 1018.21 1018.52 1018.78 1018.98 1019.14 1019.27 1019.41 1019.58 1019.80 1020.06 1020.33 1020.61 1020.84 1021.03 1021.16 1021.24 1021.28 1021.31 1021.35 1021.41 1021.48 1021.56 1021.63 1021.68 1021.70
1019.22 1019.31 1019.11 1018.65 1017.98 1017.20 1016.41 1015.72 1015.21 1014.91 1014.82 1014.91 1015.11 1015.35 1015.58 1015.76 1015.89 1015.99 1016.10 1016.25 1016.48 1016.79 1017.17 1017.58 1018.00 1018.36 1018.66 1018.89 1019.07 1019.22 1019.39 1019.59 1019.84 1020.13 1020.45 1020.75 1021.03 1021.24 1021.40 1021.49 1021.55 1021.58 1021.62 1021.66 1021.71 1021.76 1021.80 1021.82 1021.81
1018.89 1018.82 1018.46 1017.87 1017.13 1016.33 1015.59 1014.98 1014.56 1014.36 1014.35 1014.46 1014.65 1014.83 1014.98 1015.07 1015.12 1015.17 1015.26 1015.43 1015.72 1016.11 1016.59 1017.10 1017.60 1018.04 1018.40 1018.67 1018.89 1019.08 1019.29 1019.53 1019.82 1020.16 1020.51 1020.86 1021.17 1021.42 1021.60 1021.71 1021.78 1021.82 1021.85 1021.88 1021.91 1021.92 1021.92 1021.90 1021.87
1018.46 1018.26 1017.80 1017.14 1016.36 1015.58 1014.88 1014.33 1013.98 1013.83 1013.84 1013.93 1014.06 1014.15 1014.20 1014.19 1014.16 1014.16 1014.24 1014.45 1014.79 1015.27 1015.83 1016.44 1017.03 1017.55 1017.98 1018.33 1018.61 1018.85 1019.11 1019.40 1019.74 1020.12 1020.51 1020.89 1021.22 1021.49 1021.70 1021.84 1021.93 1021.99 1022.02 1022.05 1022.06 1022.06 1022.02 1021.97 1021.90
1018.04 1017.77 1017.25 1016.56 1015.79 1015.03 1014.37 1013.87 1013.55 1013.40 1013.36 1013.39 1013.41 1013.39 1013.31 1013.20 1013.09 1013.05 1013.13 1013.36 1013.75 1014.30 1014.95 1015.64 1016.32 1016.92 1017.44 1017.87 1018.22 1018.54 1018.86 1019.21 1019.59 1020.00 1020.41 1020.80 1021.15 1021.44 1021.66 1021.82 1021.94 1022.03 1022.10 1022.15 1022.17 1022.17 1022.13 1022.05 1021.94
1017.74 1017.44 1016.91 1016.23 1015.49 1014.77 1014.15 1013.66 1013.32 1013.11 1012.98 1012.88 1012.76 1012.60 1012.40 1012.18 1012.00 1011.91 1011.98 1012.22 1012.66 1013.25 1013.96 1014.72 1015.47 1016.17 1016.78 1017.30 1017.75 1018.16 1018.56 1018.96 1019.38 1019.81 1020.22 1020.61 1020.95 1021.24 1021.48 1021.66 1021.82 1021.96 1022.08 1022.18 1022.24 1022.26 1022.23 1022.15 1022.02
1017.62 1017.31 1016.80 1016.16 1015.47 1014.79 1014.18 1013.67 1013.27 1012.95 1012.68 1012.42 1012.14 1011.82 1011.49 1011.17 1010.91 1010.79 1010.83 1011.08 1011.53 1012.15 1012.90 1013.71 1014.53 1015.31 1016.02 1016.65 1017.22 1017.73 1018.21 1018.68 1019.13 1019.57 1019.98 1020.35 1020.67 1020.94 1021.18 1021.39 1021.59 1021.78 1021.97 1022.14 1022.27 1022.35 1022.35 1022.29 1022.15
1017.65 1017.34 1016.88 1016.29 1015.66 1015.01 1014.40 1013.84 1013.33 1012.86 1012.41 1011.96 1011.50 1011.02 1010.55 1010.14 1009.82 1009.66 1009.69 1009.93 1010.38 1011.01 1011.78 1012.63 1013.51 1014.37 1015.19 1015.94 1016.63 1017.26 1017.84 1018.38 1018.87 1019.31 1019.71 1020.05 1020.34 1020.60 1020.83 1021.06 1021.30 1021.55 1021.81 1022.05 1022.26 1022.41 1022.47 1022.44 1022.32
1017.72 1017.44 1017.02 1016.51 1015.93 1015.31 1014.67 1014.02 1013.38 1012.74 1012.09 1011.43 1010.77 1010.14 1009.56 1009.06 1008.71 1008.53 1008.54 1008.78 1009.22 1009.85 1010.63 1011.50 1012.43 1013.37 1014.29 1015.17 1015.99 1016.75 1017.43 1018.05 1018.59 1019.05 1019.44 1019.76 1020.02 1020.26 1020.49 1020.73 1021.00 1021.31 1021.63 1021.94 1022.22 1022.44 1022.57 1022.59 1022.51
1017.71 1017.46 1017.11 1016.67 1016.14 1015.54 1014.86 1014.12 1013.32 1012.47 1011.61 1010.74 1009.91 1009.13 1008.46 1007.91 1007.53 1007.35 1007.38 1007.62 1008.06 1008.69 1009.47 1010.37 1011.34 1012.35 1013.37 1014.36 1015.31 1016.19 1016.98 1017.68 1018.28 1018.77 1019.16 1019.48 1019.74 1019.97 1020.20 1020.46 1020.76 1021.09 1021.46 1021.82 1022.16 1022.43 1022.62 1022.70 1022.67
1017.48 1017.27 1017.01 1016.65 1016.19 1015.60 1014.88 1014.02 1013.06 1012.02 1010.94 1009.88 1008.88 1007.99 1007.25 1006.68 1006.32 1006.17 1006.23 1006.49 1006.95 1007.58 1008.37 1009.28 1010.29 1011.36 1012.45 1013.54 1014.59 1015.57 1016.46 1017.24 1017.89 1018.43 1018.85 1019.19 1019.47 1019.72 1019.97 1020.25 1020.57 1020.93 1021.31 1021.70 1022.07 1022.38 1022.61 1022.74 1022.78
1016.97 1016.84 1016.67 1016.42 1016.03 1015.46 1014.69 1013.73 1012.61 1011.37 1010.09 1008.86 1007.72 1006.75 1005.97 1005.42 1005.11 1005.02 1005.14 1005.45 1005.95 1006.60 1007.39 1008.32 1009.34 1010.44 1011.58 1012.73 1013.84 1014.89 1015.85 1016.69 1017.40 1017.99 1018.46 1018.85 1019.18 1019.48 1019.78 1020.10 1020.44 1020.81 1021.20 1021.58 1021.94 1022.27 1022.53 1022.71 1022.82
1016.20 1016.18 1016.14 1016.00 1015.69 1015.15 1014.35 1013.28 1012.01 1010.60 1009.15 1007.77 1006.53 1005.50 1004.73 1004.23 1003.99 1003.99 1004.20 1004.59 1005.13 1005.81 1006.62 1007.54 1008.56 1009.65 1010.80 1011.95 1013.08 1014.16 1015.14 1016.01 1016.77 1017.41 1017.95 1018.41 1018.83 1019.21 1019.58 1019.96 1020.33 1020.71 1021.09 1021.45 1021.79 1022.10 1022.37 1022.60 1022.78
1015.32 1015.43 1015.53 1015.52 1015.30 1014.78 1013.94 1012.79 1011.38 1009.82 1008.23 1006.73 1005.42 1004.37 1003.63 1003.20 1003.06 1003.17 1003.48 1003.96 1004.56 1005.28 1006.09 1007.00 1007.99 1009.04 1010.14 1011.25 1012.34 1013.37 1014.34 1015.21 1015.98 1016.67 1017.28 1017.84 1018.36 1018.85 1019.33 1019.78 1020.20 1020.60 1020.96 1021.29 1021.60 1021.89 1022.16 1022.42 1022.67
1014.50 1014.76 1015.00 1015.11 1014.95 1014.45 1013.57 1012.34 1010.82 1009.13 1007.43 1005.85 1004.49 1003.46 1002.77 1002.42 1002.39 1002.61 1003.03 1003.59 1004.25 1005.00 1005.81 1006.69 1007.62 1008.60 1009.61 1010.63 1011.63 1012.58 1013.48 1014.31 1015.08 1015.79 1016.47 1017.13 1017.77 1018.39 1018.98 1019.52 1020.01 1020.44 1020.80 1021.10 1021.37 1021.63 1021.90 1022.19 1022.50
1013.89 1014.28 1014.64 1014.83 1014.71 1014.21 1013.28 1011.96 1010.35 1008.57 1006.79 1005.16 1003.80 1002.80 1002.17 1001.92 1001.99 1002.32 1002.82 1003.45 1004.16 1004.92 1005.71 1006.54 1007.40 1008.29 1009.19 1010.09 1010.97 1011.81 1012.61 1013.37 1014.11 1014.84 1015.57 1016.32 1017.07 1017.81 1018.53 1019.17 1019.74 1020.20 1020.57 1020.86 1021.11 1021.35 1021.61 1021.93 1022.29
1013.55 1014.04 1014.46 1014.68 1014.55 1014.01 1013.01 1011.61 1009.92 1008.08 1006.27 1004.64 1003.31 1002.36 1001.82 1001.65 1001.81 1002.21 1002.79 1003.46 1004.18 1004.93 1005.69 1006.46 1007.24 1008.03 1008.82 1009.59 1010.34 1011.07 1011.77 1012.46 1013.16 1013.88 1014.65 1015.47 1016.31 1017.17 1017.99 1018.73 1019.37 1019.88 1020.27 1020.57 1020.81 1021.03 1021.30 1021.65 1022.06
1013.43 1013.95 1014.36 1014.53 1014.34 1013.71 1012.63 1011.16 1009.42 1007.57 1005.77 1004.19 1002.94 1002.07 1001.61 1001.53 1001.76 1002.21 1002.81 1003.49 1004.19 1004.90 1005.61 1006.31 1007.01 1007.71 1008.40 1009.08 1009.73 1010.35 1010.97 1011.60 1012.26 1012.98 1013.77 1014.63 1015.55 1016.48 1017.38 1018.21 1018.91 1019.47 1019.89 1020.21 1020.45 1020.69 1020.98 1021.35 1021.81
1013.36 1013.82 1014.14 1014.20 1013.88 1013.13 1011.96 1010.45 1008.70 1006.89 1005.18 1003.70 1002.57 1001.82 1001.47 1001.46 1001.73 1002.20 1002.79 1003.42 1004.07 1004.71 1005.35 1005.98 1006.61 1007.23 1007.85 1008.47 1009.06 1009.63 1010.21 1010.80 1011.44 1012.15 1012.96 1013.85 1014.80 1015.78 1016.74 1017.62 1018.37 1018.97 1019.43 1019.78 1020.05 1020.32 1020.63 1021.03 1021.54
1013.12 1013.43 1013.59 1013.47 1012.98 1012.11 1010.87 1009.34 1007.65 1005.96 1004.39 1003.09 1002.12 1001.53 1001.29 1001.36 1001.66 1002.11 1002.63 1003.19 1003.74 1004.28 1004.81 1005.36 1005.92 1006.50 1007.09 1007.69 1008.27 1008.85 1009.42 1010.02 1010.68 1011.40 1012.21 1013.11 1014.08 1015.08 1016.06 1016.97 1017.75 1018.39 1018.89 1019.27 1019.59 1019.90 1020.25 1020.69 1021.23
1012.48 1012.59 1012.53 1012.21 1011.56 1010.58 1009.31 1007.83 1006.27 1004.75 1003.41 1002.35 1001.60 1001.19 1001.09 1001.22 1001.52 1001.92 1002.34 1002.77 1003.18 1003.58 1004.00 1004.45 1004.94 1005.48 1006.07 1006.68 1007.30 1007.93 1008.56 1009.21 1009.90 1010.66 1011.49 1012.40 1013.37 1014.37 1015.34 1016.25 1017.05 1017.73 1018.27 1018.70 1019.07 1019.43 1019.83 1020.31 1020.87
1011.37 1011.26 1010.98 1010.46 1009.69 1008.65 1007.41 1006.06 1004.69 1003.43 1002.37 1001.59 1001.10 1000.89 1000.91 1001.10 1001.38 1001.69 1001.98 1002.24 1002.47 1002.70 1002.96 1003.29 1003.71 1004.21 1004.80 1005.45 1006.13 1006.84 1007.56 1008.29 1009.06 1009.86 1010.73 1011.65 1012.61 1013.60 1014.56 1015.47 1016.28 1016.99 1017.57 1018.06 1018.50 1018.92 1019.37 1019.88 1020.46
Thickness
5750 5749 5746 5735 5711 5690 5693 5708 5724 5726 5729 5733 5734 5730 5724 5722 5715 5712 5720 5723 5721 5718 5716 5713 5711 5710 5708 5707 5707 5706 5706 5706 5706 5706 5705 5705 5705 5705 5705 5705 5705 5706 5707 5707 5707 5707 5707 5707 5708
5747 5746 5736 5718 5692 5681 5690 5712 5721 5727 5731 5731 5732 5728 5721 5720 5723 5720 5718 5720 5720 5718 5716 5713 5712 5711 5710 5708 5707 5706 5705 5705 5704 5704 5703 5702 5701 5702 5702 5701 5701 5702 5703 5703 5703 5703 5703 5703 5704
5745 5742 5721 5702 5689 5683 5703 5722 5723 5727 5731 5731 5728 5729 5727 5723 5722 5720 5722 5720 5717 5715 5713 5712 5711 5710 5709 5708 5706 5705 5705 5703 5702 5701 5700 5699 5697 5697 5697 5698 5697 5698 5699 5700 5700 5700 5700 5700 5701
5740 5728 5713 5695 5694 5699 5713 5728 5724 5723 5729 5731 5729 5725 5726 5729 5726 5724 5723 5719 5715 5713 5711 5710 5709 5708 5707 5706 5704 5703 5703 5701 5699 5698 5697 5696 5695 5694 5694 5695 5695 5695 5696 5696 5697 5697 5696 5696 5696
5733 5716 5703 5691 5696 5710 5724 5732 5722 5723 5725 5729 5728 5722 5725 5730 5728 5725 5722 5718 5714 5711 5709 5707 5706 5705 5704 5704 5702 5701 5701 5699 5697 5695 5694 5693 5692 5691 5691 5691 5691 5692 5692 5692 5692 5691 5691 5691 5693
5719 5706 5691 5686 5701 5718 5733 5730 5723 5723 5725 5728 5726 5722 5730 5728 5725 5723 5720 5717 5713 5709 5706 5704 5701 5700 5700 5700 5699 5698 5697 5695 5694 5692 5691 5690 5689 5687 5686 5686 5686 5686 5687 5687 5687 5686 5687 5687 5688
5713 5699 5693 5699 5705 5715 5732 5732 5725 5725 5725 5727 5728 5721 5731 5724 5725 5723 5719 5715 5711 5708 5704 5701 5699 5698 5696 5696 5695 5694 5693 5691 5689 5688 5686 5686 5684 5682 5681 5681 5681 5681 5682 5682 5682 5682 5682 5683 5683
5719 5702 5700 5700 5708 5717 5735 5735 5737 5731 5730 5736 5731 5723 5729 5729 5724 5719 5714 5710 5706 5705 5703 5700 5697 5696 5694 5692 5691 5689 5688 5686 5684 5683 5682 5681 5679 5677 5676 5676 5676 5676 5677 5678 5677 5677 5677 5677 5678
5722 5697 5691 5704 5715 5724 5734 5732 5736 5739 5736 5736 5735 5735 5737 5731 5721 5714 5709 5704 5702 5702 5701 5699 5697 5694 5692 5689 5686 5684 5682 5681 5679 5677 5676 5675 5674 5673 5672 5672 5671 5671 5671 5671 5671 5670 5671 5671 5672
5709 5691 5701 5718 5729 5730 5732 5729 5732 5730 5727 5729 5733 5735 5728 5724 5718 5715 5712 5709 5706 5704 5701 5699 5696 5692 5689 5686 5682 5679 5677 5676 5674 5672 5671 5670 5669 5669 5667 5666 5665 5664 5664 5664 5664 5664 5664 5666 5667
5707 5700 5711 5722 5731 5731 5729 5728 5731 5724 5720 5725 5730 5733 5723 5718 5717 5717 5717 5717 5716 5711 5704 5699 5695 5690 5686 5682 5678 5675 5673 5672 5670 5668 5667 5665 5663 5662 5661 5659 5657 5656 5656 5656 5655 5656 5657 5658 5658
5706 5711 5715 5722 5728 5725 5722 5725 5726 5722 5733 5737 5738 5737 5723 5717 5717 5719 5719 5718 5713 5708 5705 5700 5694 5688 5683 5680 5675 5672 5669 5667 5665 5663 5660 5658 5657 5655 5653 5651 5650 5649 5648 5647 5647 5648 5649 5650 5650
5705 5711 5716 5720 5718 5715 5715 5715 5717 5725 5736 5734 5733 5731 5724 5723 5723 5723 5722 5717 5709 5706 5703 5698 5693 5688 5681 5676 5671 5668 5665 5662 5660 5657 5654 5653 5651 5649 5647 5645 5643 5641 5640 5640 5639 5640 5641 5641 5642
5706 5707 5710 5711 5707 5707 5705 5713 5708 5729 5732 5727 5726 5726 5724 5725 5726 5721 5718 5716 5712 5708 5702 5696 5691 5686 5680 5675 5669 5665 5660 5657 5654 5651 5649 5647 5646 5645 5642 5638 5635 5633 5631 5630 5630 5630 5631 5633 5633
5700 5693 5699 5708 5704 5701 5696 5699 5711 5732 5725 5721 5724 5725 5725 5725 5726 5725 5726 5723 5719 5713 5705 5696 5690 5683 5678 5672 5666 5660 5655 5651 5648 5645 5643 5641 5640 5639 5636 5631 5627 5625 5623 5622 5622 5622 5623 5624 5623
5686 5676 5676 5705 5702 5697 5685 5693 5732 5727 5715 5715 5722 5723 5725 5728 5729 5733 5731 5725 5720 5713 5707 5699 5691 5683 5676 5670 5663 5656 5651 5646 5642 5639 5637 5635 5634 5632 5629 5625 5621 5618 5616 5615 5615 5614 5613 5612 5612
5663 5653 5659 5685 5699 5688 5678 5685 5728 5725 5713 5713 5720 5721 5723 5729 5734 5735 5731 5726 5720 5715 5709 5700 5693 5685 5676 5667 5659 5652 5646 5641 5637 5633 5631 5629 5627 5625 5622 5618 5614 5611 5609 5608 5607 5603 5602 5601 5601
5651 5641 5648 5666 5689 5674 5665 5677 5710 5721 5709 5707 5711 5715 5718 5725 5740 5741 5733 5728 5722 5716 5709 5701 5692 5683 5672 5661 5652 5645 5640 5635 5631 5628 5625 5622 5619 5617 5613 5609 5606 5604 5601 5599 5596 5593 5591 5589 5589
5661 5652 5647 5664 5685 5664 5658 5670 5689 5709 5707 5705 5710 5717 5722 5731 5748 5741 5733 5728 5721 5713 5705 5697 5688 5679 5669 5660 5652 5644 5638 5632 5627 5623 5620 5615 5611 5608 5604 5601 5597 5594 5591 5588 5585 5582 5579 5578 5579
5651 5643 5649 5658 5670 5657 5649 5662 5678 5692 5703 5708 5710 5716 5724 5735 5747 5737 5728 5723 5720 5714 5705 5695 5687 5678 5671 5664 5655 5645 5635 5627 5623 5618 5612 5608 5604 5600 5597 5594 5590 5585 5581 5576 5573 5571 5568 5566 5566
5644 5640 5648 5646 5651 5649 5641 5648 5662 5682 5696 5702 5707 5712 5723 5734 5741 5739 5726 5718 5714 5709 5702 5694 5684 5675 5667 5656 5643 5632 5621 5615 5610 5608 5605 5601 5598 5593 5590 5586 5580 5575 5571 5566 5562 5560 5559 5554 5551
5648 5651 5646 5637 5624 5622 5630 5639 5666 5676 5685 5696 5707 5714 5722 5733 5732 5731 5725 5713 5709 5706 5696 5687 5677 5668 5659 5649 5639 5630 5625 5621 5617 5610 5602 5595 5590 5585 5581 5576 5570 5565 5561 5556 5552 5550 5549 5546 5540
5646 5648 5636 5629 5618 5610 5611 5618 5662 5666 5669 5687 5708 5718 5724 5733 5731 5727 5721 5712 5704 5694 5685 5678 5668 5660 5651 5642 5633 5624 5619 5614 5604 5598 5590 5584 5579 5574 5569 5563 5558 5555 5551 5547 5543 5538 5538 5535 5530
5639 5630 5619 5605 5602 5604 5617 5622 5665 5656 5667 5682 5703 5715 5721 5729 5728 5721 5713 5703 5692 5681 5672 5664 5658 5651 5643 5635 5627 5620 5614 5605 5596 5591 5584 5576 5569 5564 5559 5553 5547 5542 5539 5536 5532 5528 5527 5524 5519
5623 5612 5586 5578 5577 5611 5624 5623 5655 5658 5672 5684 5697 5706 5717 5723 5715 5704 5694 5689 5682 5674 5664 5654 5647 5641 5635 5630 5625 5620 5613 5604 5596 5588 5580 5572 5564 5558 5552 5546 5538 5531 5526 5522 5519 5515 5515 5513 5507
5604 5602 5584 5577 5582 5610 5606 5610 5644 5658 5662 5667 5673 5686 5699 5700 5694 5691 5685 5678 5672 5664 5656 5648 5640 5633 5627 5624 5621 5614 5605 5598 5591 5582 5575 5568 5563 5554 5545 5538 5531 5523 5516 5511 5506 5502 5501 5499 5494
5588 5588 5597 5582 5578 5573 5598 5613 5636 5654 5662 5662 5662 5664 5671 5674 5673 5672 5668 5662 5657 5650 5646 5641 5636 5629 5623 5618 5611 5605 5599 5593 5585 5576 5566 5559 5551 5543 5534 5527 5521 5515 5509 5503 5496 5491 5487 5484 5479
5584 5581 5561 5563 5555 5557 5587 5608 5623 5642 5647 5649 5654 5656 5658 5659 5657 5656 5651 5646 5643 5640 5636 5630 5628 5625 5618 5609 5603 5597 5589 5583 5575 5567 5558 5549 5540 5532 5523 5515 5509 5504 5499 5493 5486 5480 5476 5472 5466
5564 5564 5563 5559 5553 5552 5555 5595 5634 5632 5635 5640 5647 5647 5645 5645 5644 5642 5640 5635 5629 5624 5619 5616 5614 5611 5607 5602 5596 5588 5580 5570 5563 5557 5551 5541 5531 5524 5515 5507 5499 5493 5488 5482 5474 5468 5463 5460 5453
5557 5562 5562 5553 5550 5548 5543 5568 5640 5626 5629 5631 5632 5633 5631 5630 5630 5629 5627 5622 5615 5612 5609 5607 5605 5603 5603 5599 5590 5583 5573 5563 5555 5550 5542 5533 5524 5515 5506 5498 5491 5483 5477 5470 5462 5453 5447 5444 5437